Location: Altmatt
(47.1333°N, 8.7000°E)
Time: 19:11:42
(UTC+00:00)

DELTA 2 R/B (1) - Pass Details

Date: 13 July 2020
Orbit: 790 x 803 km, 39.6° (Epoch: 12 August)

Event Time Altitude Azimuth Distance (km) Brightness Sun altitude
Rises 20:00:50 0° 254° (WSW) 3,280 7.2 -6.5°
Reaches altitude 10° 20:03:26 10° 246° (WSW) 2,352 6.4 -6.9°
Maximum altitude 20:08:33 39° 180° (S) 1,181 4.2 -7.5°
Drops below altitude 10° 20:13:40 10° 113° (ESE) 2,360 5.5 -8.1°
Enters shadow 20:14:17 - 111° (ESE) 2,572 5.7 -8.2°
